Danville, VA

10:13 AM EDT on October 23, 2017 (GMT -0400)
Danville Regional

Weather History for KDAN - January, 2011

Change the Weather History Date:

Saturday, January 22, 2011

  Actual Average Record
Temperature  
Mean Temperature 25 °F 38 °F  
Max Temperature 33 °F 46 °F 67 °F (1957)
Min Temperature 16 °F 29 °F -4 °F (1985)
Degree Days  
Heating Degree Days 40 27  
Month to date heating degree days 678 605  
Since 1 July heating degree days 2312 2087  
Cooling Degree Days 0 0  
Month to date cooling degree days 0 0  
Year to date cooling degree days 0 0  
Moisture  
Dew Point 3 °F    
Average Humidity 45    
Maximum Humidity 61    
Minimum Humidity 29    
Precipitation  
Precipitation 0.00 in 0.10 in 0.98 in (2016)
Month to date precipitation 0.72 2.37  
Year to date precipitation 0.72 2.37  
Snow  
Snow 0.00 in - - ()
Month to date snowfall 3.3  
Since 1 July snowfall 10.7  
Snow Depth 0.00 in    
Sea Level Pressure  
Sea Level Pressure 29.95 in    
Wind  
Wind Speed 5 mph (NNE)    
Max Wind Speed 12 mph    
Max Gust Speed 15 mph    
Visibility 10 miles    
Events      
T = Trace of Precipitation, MM = Missing Value Source: NWS Daily Summary

Daily Weather History Graph

Daily Weather History Graph

Search for Another Location

Airport or City:

Trip Planner

Search our weather history database for the weather conditions in past years. The results will help you decide how hot, cold, wet, or windy it might be!

Date:

Astronomy

Jan. 22, 2011 Rise Set
Actual Time 7:25 AM EST 5:32 PM EST
Civil Twilight 6:58 AM EST 6:00 PM EST
Nautical Twilight 6:26 AM EST 6:31 PM EST
Astronomical Twilight 5:55 AM EST 7:02 PM EST
Moon 9:11 PM EST (1/22) 8:57 AM EST (1/22)
Length of Visible Light 11h 01m
Length of Day
10h 06m
Waning Gibbous, 89% of the Moon is Illuminated
Jan 22
Waning Gibbous
Jan 26
Last Quarter
Feb 2
New
Feb 11
First Quarter
Feb 18
Full

Hourly Weather History & Observations

Time (EST) Temp. Windchill Dew Point Humidity Pressure Visibility Wind Dir Wind Speed Gust Speed Precip Events Conditions
12:53 AM 25.0 °F 17.1 °F -0.0 °F 34% 29.98 in 10.0 mi North 6.9 mph - N/A   Clear
1:53 AM 25.0 °F 15.5 °F -0.0 °F 34% 29.98 in 10.0 mi North 9.2 mph - N/A   Clear
2:53 AM 24.1 °F 17.0 °F -0.0 °F 35% 29.98 in 10.0 mi NNE 5.8 mph - N/A   Clear
3:53 AM 24.1 °F 15.2 °F -0.0 °F 35% 29.97 in 10.0 mi North 8.1 mph - N/A   Clear
4:53 AM 23.0 °F 13.9 °F 1.0 °F 39% 29.98 in 10.0 mi North 8.1 mph - N/A   Clear
5:53 AM 23.0 °F 14.7 °F 1.9 °F 40% 29.98 in 10.0 mi NNE 6.9 mph - N/A   Partly Cloudy
6:53 AM 23.0 °F 14.7 °F 1.0 °F 39% 29.98 in 10.0 mi NNE 6.9 mph - N/A   Overcast
7:53 AM 23.0 °F 14.7 °F 1.0 °F 39% 30.00 in 10.0 mi NNE 6.9 mph - N/A   Overcast
8:53 AM 24.1 °F 17.0 °F 1.9 °F 38% 30.00 in 10.0 mi NNE 5.8 mph - N/A   Overcast
9:53 AM 25.0 °F 18.1 °F 3.0 °F 39% 29.99 in 10.0 mi East 5.8 mph - N/A   Overcast
10:53 AM 26.1 °F 20.5 °F 3.0 °F 37% 29.98 in 10.0 mi NE 4.6 mph - N/A   Overcast
11:53 AM 27.0 °F 20.5 °F 3.0 °F 36% 29.96 in 10.0 mi NE 5.8 mph - N/A   Mostly Cloudy
12:53 PM 28.0 °F 20.0 °F 3.0 °F 34% 29.93 in 10.0 mi NE 8.1 mph - N/A   Clear
1:53 PM 28.9 °F 22.8 °F 3.0 °F 33% 29.91 in 10.0 mi NE 5.8 mph - N/A   Clear
2:53 PM 32.0 °F 27.5 °F 3.0 °F 29% 29.89 in 10.0 mi North 4.6 mph - N/A   Clear
3:53 PM 32.0 °F - 3.0 °F 29% 29.89 in 10.0 mi Calm Calm - N/A   Clear
4:53 PM 30.9 °F 27.5 °F 3.0 °F 31% 29.88 in 10.0 mi North 3.5 mph - N/A   Clear
5:53 PM 27.0 °F - 3.9 °F 37% 29.89 in 10.0 mi Calm Calm - N/A   Clear
6:53 PM 24.1 °F - 6.1 °F 46% 29.92 in 10.0 mi Calm Calm - N/A   Clear
7:53 PM 21.0 °F - 6.1 °F 53% 29.93 in 10.0 mi Calm Calm - N/A   Clear
8:53 PM 19.0 °F - 6.1 °F 57% 29.95 in 10.0 mi Calm Calm - N/A   Clear
9:53 PM 19.0 °F - 7.0 °F 59% 29.97 in 10.0 mi Calm Calm - N/A   Clear
10:53 PM 17.1 °F 11.7 °F 7.0 °F 65% 29.98 in 10.0 mi SSW 3.5 mph - N/A   Clear
11:53 PM 16.0 °F 10.4 °F 8.1 °F 71% 29.98 in 10.0 mi SW 3.5 mph - N/A   Clear